STARLINK-5980 (56326 NORAD) Tracking and Keplerian Element Data

This shows tracking and keplerian element data for the satellite.

Feedback or suggestion? Click here.




ElementValue
Catalog56326
NameSTARLINK-5980
Epoch Orbit179
Epoch Day126.91667824
Epoch Year2023
RAAN126.3809
Inclination97.6627
Eccentricity0.0001583
Argument of Perigee94.9369
Mean Anonmoly120.1698
Mean Motion15.68130399
Decay Rate-0.00797727
L11 56326U 23058K 23126.91667824 -.00797727 00000+0 -79031-2 0 9999
L22 56326 97.6627 126.3809 0001583 94.9369 120.1698 15.68130399 1796



Live tracking and technical data element details for STARLINK-5980 (NORAD 56326). STARLINK-5980 can be tracked NOW for your location showing map with azimuth and elevation plus other details from your city location.







IsCatalogInMostPopularTable: catalog: 56326, numindb: 4
Update: records affected: 1



GetName: 56326 STARLINK-5980

Hit Count: updated at: Wed, 07 Jun 2023 07:54:19 GMT